Location: Hains Lake
(37.8540°N, 99.8578°W)
Time: 23:10:01
(UTC+00:00)

Explorer 7 - Pass Details

Date: 21 April 2021
Orbit: 484 x 677 km, 50.3° (Epoch: 14 May)

Event Time Altitude Azimuth Distance (km) Brightness Sun altitude
Rises 02:56:10 0° 260° (W) 2,618 11.0 -18.1°
Reaches altitude 10° 02:58:29 10° 271° (W) 1,761 10.2 -18.5°
Maximum altitude 03:02:05 31° 335° (NNW) 966 8.6 -19.1°
Drops below altitude 10° 03:05:54 10° 38° (NE) 1,870 9.5 -19.7°
Enters shadow 03:07:48 - 47° (NE) 2,570 10.1 -20.0°
